Location: ??????
(41.3794°N, 22.5014°E)
Time: 07:20:59
(UTC+00:00)

Cosmos 1812 - Pass Details

Date: 30 November 2020
Orbit: 517 x 520 km, 82.5° (Epoch: 17 January)

Event Time Altitude Azimuth Distance (km) Brightness Sun altitude
Rises 16:09:44 0° 156° (SSE) 2,626 6.2 -12.6°
Reaches altitude 10° 16:12:10 10° 141° (SE) 1,744 5.2 -13.0°
Maximum altitude 16:15:10 22° 89° (E) 1,165 3.9 -13.5°
Enters shadow 16:15:18 22° 86° (E) 1,166 3.9 -13.6°
